#datetime,building,power
2023-08-11T00:00:00,mfh,31.04
2023-08-11T00:01:00,mfh,31.00
2023-08-11T00:02:00,mfh,31.11
2023-08-11T00:03:00,mfh,31.70
2023-08-11T00:04:00,mfh,31.84
2023-08-11T00:05:00,mfh,32.73
2023-08-11T00:06:00,mfh,32.94
2023-08-11T00:07:00,mfh,32.90
2023-08-11T00:08:00,mfh,32.48
2023-08-11T00:09:00,mfh,32.60
2023-08-11T00:10:00,mfh,32.67
2023-08-11T00:11:00,mfh,32.70
2023-08-11T00:12:00,mfh,32.22
2023-08-11T00:13:00,mfh,32.23
2023-08-11T00:14:00,mfh,32.35
2023-08-11T00:15:00,mfh,32.40
2023-08-11T00:16:00,mfh,33.05
2023-08-11T00:17:00,mfh,31.00
2023-08-11T00:18:00,mfh,31.03
2023-08-11T00:19:00,mfh,31.02
2023-08-11T00:20:00,mfh,31.85
2023-08-11T00:21:00,mfh,32.50
2023-08-11T00:22:00,mfh,32.40
2023-08-11T00:23:00,mfh,32.47
2023-08-11T00:24:00,mfh,32.47
2023-08-11T00:25:00,mfh,31.82
2023-08-11T00:26:00,mfh,31.19
2023-08-11T00:27:00,mfh,31.15
2023-08-11T00:28:00,mfh,31.08
2023-08-11T00:29:00,mfh,31.12
2023-08-11T00:30:00,mfh,32.08
2023-08-11T00:31:00,mfh,32.40
2023-08-11T00:32:00,mfh,32.34
2023-08-11T00:33:00,mfh,32.87
2023-08-11T00:34:00,mfh,32.21
2023-08-11T00:35:00,mfh,31.85
2023-08-11T00:36:00,mfh,31.00
2023-08-11T00:37:00,mfh,31.01
2023-08-11T00:38:00,mfh,31.49
2023-08-11T00:39:00,mfh,31.47
2023-08-11T00:40:00,mfh,31.57
2023-08-11T00:41:00,mfh,31.54
2023-08-11T00:42:00,mfh,32.37
2023-08-11T00:43:00,mfh,31.84
2023-08-11T00:44:00,mfh,32.10
2023-08-11T00:45:00,mfh,32.63
2023-08-11T00:46:00,mfh,32.32
2023-08-11T00:47:00,mfh,33.04
2023-08-11T00:48:00,mfh,33.97
2023-08-11T00:49:00,mfh,34.05
2023-08-11T00:50:00,mfh,32.31
2023-08-11T00:51:00,mfh,32.35
2023-08-11T00:52:00,mfh,32.40
2023-08-11T00:53:00,mfh,31.66
2023-08-11T00:54:00,mfh,32.12
2023-08-11T00:55:00,mfh,31.00
2023-08-11T00:56:00,mfh,31.51
2023-08-11T00:57:00,mfh,32.86
2023-08-11T00:58:00,mfh,31.72
2023-08-11T00:59:00,mfh,31.88
2023-08-11T01:00:00,mfh,32.87
2023-08-11T01:01:00,mfh,31.88
2023-08-11T01:02:00,mfh,31.83
2023-08-11T01:03:00,mfh,31.85
2023-08-11T01:04:00,mfh,31.78
2023-08-11T01:05:00,mfh,31.57
2023-08-11T01:06:00,mfh,31.62
2023-08-11T01:07:00,mfh,31.66
2023-08-11T01:08:00,mfh,31.86
2023-08-11T01:09:00,mfh,32.28
2023-08-11T01:10:00,mfh,32.01
2023-08-11T01:11:00,mfh,32.11
2023-08-11T01:12:00,mfh,32.01
2023-08-11T01:13:00,mfh,32.01
2023-08-11T01:14:00,mfh,33.38
2023-08-11T01:15:00,mfh,32.01
2023-08-11T01:16:00,mfh,32.02
2023-08-11T01:17:00,mfh,31.83
2023-08-11T01:18:00,mfh,31.86
2023-08-11T01:19:00,mfh,31.04
2023-08-11T01:20:00,mfh,31.05
2023-08-11T01:21:00,mfh,31.87
2023-08-11T01:22:00,mfh,32.80
2023-08-11T01:23:00,mfh,32.87
2023-08-11T01:24:00,mfh,32.98
2023-08-11T01:25:00,mfh,32.78
2023-08-11T01:26:00,mfh,32.52
2023-08-11T01:27:00,mfh,31.69
2023-08-11T01:28:00,mfh,31.27
2023-08-11T01:29:00,mfh,32.26
2023-08-11T01:30:00,mfh,32.35
2023-08-11T01:31:00,mfh,33.06
2023-08-11T01:32:00,mfh,33.06
2023-08-11T01:33:00,mfh,33.08
2023-08-11T01:34:00,mfh,31.84
2023-08-11T01:35:00,mfh,31.84
2023-08-11T01:36:00,mfh,31.14
2023-08-11T01:37:00,mfh,32.15
2023-08-11T01:38:00,mfh,31.73
2023-08-11T01:39:00,mfh,31.91
2023-08-11T01:40:00,mfh,32.45
2023-08-11T01:41:00,mfh,32.44
2023-08-11T01:42:00,mfh,31.66
2023-08-11T01:43:00,mfh,31.65
2023-08-11T01:44:00,mfh,31.61
2023-08-11T01:45:00,mfh,31.74
2023-08-11T01:46:00,mfh,31.62
2023-08-11T01:47:00,mfh,31.70
2023-08-11T01:48:00,mfh,32.21
2023-08-11T01:49:00,mfh,32.20
2023-08-11T01:50:00,mfh,31.67
2023-08-11T01:51:00,mfh,32.23
2023-08-11T01:52:00,mfh,31.84
2023-08-11T01:53:00,mfh,31.07
2023-08-11T01:54:00,mfh,31.37
2023-08-11T01:55:00,mfh,31.12
2023-08-11T01:56:00,mfh,31.14
2023-08-11T01:57:00,mfh,32.66
2023-08-11T01:58:00,mfh,32.51
2023-08-11T01:59:00,mfh,32.92
2023-08-11T02:00:00,mfh,33.05
2023-08-11T02:01:00,mfh,33.05
2023-08-11T02:02:00,mfh,31.08
2023-08-11T02:03:00,mfh,31.04
2023-08-11T02:04:00,mfh,30.96
2023-08-11T02:05:00,mfh,32.80
2023-08-11T02:06:00,mfh,33.24
2023-08-11T02:07:00,mfh,33.08
2023-08-11T02:08:00,mfh,33.15
2023-08-11T02:09:00,mfh,33.20
2023-08-11T02:10:00,mfh,32.59
2023-08-11T02:11:00,mfh,31.78
2023-08-11T02:12:00,mfh,31.77
2023-08-11T02:13:00,mfh,31.89
2023-08-11T02:14:00,mfh,31.80
2023-08-11T02:15:00,mfh,32.39
2023-08-11T02:16:00,mfh,32.63
2023-08-11T02:17:00,mfh,32.17
2023-08-11T02:18:00,mfh,32.46
2023-08-11T02:19:00,mfh,31.84
2023-08-11T02:20:00,mfh,31.85
2023-08-11T02:21:00,mfh,33.53
2023-08-11T02:22:00,mfh,33.55
2023-08-11T02:23:00,mfh,33.52
2023-08-11T02:24:00,mfh,33.46
2023-08-11T02:25:00,mfh,33.51
2023-08-11T02:26:00,mfh,33.53
2023-08-11T02:27:00,mfh,33.36
2023-08-11T02:28:00,mfh,32.83
2023-08-11T02:29:00,mfh,31.92
2023-08-11T02:30:00,mfh,31.81
2023-08-11T02:31:00,mfh,33.23
2023-08-11T02:32:00,mfh,32.53
2023-08-11T02:33:00,mfh,32.57
2023-08-11T02:34:00,mfh,31.99
2023-08-11T02:35:00,mfh,32.07
2023-08-11T02:36:00,mfh,32.02
2023-08-11T02:37:00,mfh,31.17
2023-08-11T02:38:00,mfh,31.18
2023-08-11T02:39:00,mfh,31.14
2023-08-11T02:40:00,mfh,31.86
2023-08-11T02:41:00,mfh,32.69
2023-08-11T02:42:00,mfh,33.12
2023-08-11T02:43:00,mfh,33.24
2023-08-11T02:44:00,mfh,33.30
2023-08-11T02:45:00,mfh,32.51
2023-08-11T02:46:00,mfh,31.45
2023-08-11T02:47:00,mfh,31.91
2023-08-11T02:48:00,mfh,31.49
2023-08-11T02:49:00,mfh,34.37
2023-08-11T02:50:00,mfh,33.27
2023-08-11T02:51:00,mfh,33.35
2023-08-11T02:52:00,mfh,33.34
2023-08-11T02:53:00,mfh,33.49
2023-08-11T02:54:00,mfh,32.10
2023-08-11T02:55:00,mfh,32.28
2023-08-11T02:56:00,mfh,32.40
2023-08-11T02:57:00,mfh,31.86
2023-08-11T02:58:00,mfh,31.84
2023-08-11T02:59:00,mfh,31.82
2023-08-11T03:00:00,mfh,32.44
2023-08-11T03:01:00,mfh,32.70
2023-08-11T03:02:00,mfh,32.61
2023-08-11T03:03:00,mfh,32.36
2023-08-11T03:04:00,mfh,31.80
2023-08-11T03:05:00,mfh,31.97
2023-08-11T03:06:00,mfh,31.87
2023-08-11T03:07:00,mfh,31.84
2023-08-11T03:08:00,mfh,31.93
2023-08-11T03:09:00,mfh,31.87
2023-08-11T03:10:00,mfh,31.98
2023-08-11T03:11:00,mfh,32.64
2023-08-11T03:12:00,mfh,31.75
2023-08-11T03:13:00,mfh,32.47
2023-08-11T03:14:00,mfh,31.98
2023-08-11T03:15:00,mfh,33.31
2023-08-11T03:16:00,mfh,32.47
2023-08-11T03:17:00,mfh,32.48
2023-08-11T03:18:00,mfh,31.62
2023-08-11T03:19:00,mfh,31.73
2023-08-11T03:20:00,mfh,31.66
2023-08-11T03:21:00,mfh,39.66
2023-08-11T03:22:00,mfh,39.82
2023-08-11T03:23:00,mfh,40.98
2023-08-11T03:24:00,mfh,42.31
2023-08-11T03:25:00,mfh,42.59
2023-08-11T03:26:00,mfh,42.75
2023-08-11T03:27:00,mfh,43.47
2023-08-11T03:28:00,mfh,42.95
2023-08-11T03:29:00,mfh,43.07
2023-08-11T03:30:00,mfh,40.84
2023-08-11T03:31:00,mfh,40.86
2023-08-11T03:32:00,mfh,40.83
2023-08-11T03:33:00,mfh,42.57
2023-08-11T03:34:00,mfh,42.73
2023-08-11T03:35:00,mfh,42.45
2023-08-11T03:36:00,mfh,42.65
2023-08-11T03:37:00,mfh,42.50
2023-08-11T03:38:00,mfh,40.76
2023-08-11T03:39:00,mfh,40.66
2023-08-11T03:40:00,mfh,41.64
2023-08-11T03:41:00,mfh,41.97
2023-08-11T03:42:00,mfh,42.78
2023-08-11T03:43:00,mfh,42.25
2023-08-11T03:44:00,mfh,42.13
2023-08-11T03:45:00,mfh,41.52
2023-08-11T03:46:00,mfh,42.07
2023-08-11T03:47:00,mfh,39.76
2023-08-11T03:48:00,mfh,39.77
2023-08-11T03:49:00,mfh,39.63
2023-08-11T03:50:00,mfh,41.22
2023-08-11T03:51:00,mfh,42.16
2023-08-11T03:52:00,mfh,42.15
2023-08-11T03:53:00,mfh,42.21
2023-08-11T03:54:00,mfh,42.38
2023-08-11T03:55:00,mfh,42.36
2023-08-11T03:56:00,mfh,40.93
2023-08-11T03:57:00,mfh,39.80
2023-08-11T03:58:00,mfh,39.72
2023-08-11T03:59:00,mfh,40.19
2023-08-11T04:00:00,mfh,40.19
2023-08-11T04:01:00,mfh,40.15
2023-08-11T04:02:00,mfh,41.79
2023-08-11T04:03:00,mfh,42.30
2023-08-11T04:04:00,mfh,41.30
2023-08-11T04:05:00,mfh,40.64
2023-08-11T04:06:00,mfh,41.60
2023-08-11T04:07:00,mfh,41.79
2023-08-11T04:08:00,mfh,41.35
2023-08-11T04:09:00,mfh,40.23
2023-08-11T04:10:00,mfh,40.12
2023-08-11T04:11:00,mfh,42.04
2023-08-11T04:12:00,mfh,42.43
2023-08-11T04:13:00,mfh,41.76
2023-08-11T04:14:00,mfh,41.94
2023-08-11T04:15:00,mfh,42.18
2023-08-11T04:16:00,mfh,40.68
2023-08-11T04:17:00,mfh,41.28
2023-08-11T04:18:00,mfh,41.44
2023-08-11T04:19:00,mfh,40.89
2023-08-11T04:20:00,mfh,41.59
2023-08-11T04:21:00,mfh,41.59
2023-08-11T04:22:00,mfh,40.26
2023-08-11T04:23:00,mfh,40.35
2023-08-11T04:24:00,mfh,39.62
2023-08-11T04:25:00,mfh,39.56
2023-08-11T04:26:00,mfh,40.19
2023-08-11T04:27:00,mfh,40.17
2023-08-11T04:28:00,mfh,41.25
2023-08-11T04:29:00,mfh,40.87
2023-08-11T04:30:00,mfh,40.08
2023-08-11T04:31:00,mfh,39.99
2023-08-11T04:32:00,mfh,40.01
2023-08-11T04:33:00,mfh,39.51
2023-08-11T04:34:00,mfh,40.05
2023-08-11T04:35:00,mfh,40.15
2023-08-11T04:36:00,mfh,40.22
2023-08-11T04:37:00,mfh,40.43
2023-08-11T04:38:00,mfh,41.00
2023-08-11T04:39:00,mfh,40.02
2023-08-11T04:40:00,mfh,40.34
2023-08-11T04:41:00,mfh,40.70
2023-08-11T04:42:00,mfh,40.71
2023-08-11T04:43:00,mfh,41.56
2023-08-11T04:44:00,mfh,41.74
2023-08-11T04:45:00,mfh,40.33
2023-08-11T04:46:00,mfh,41.15
2023-08-11T04:47:00,mfh,40.40
2023-08-11T04:48:00,mfh,40.45
2023-08-11T04:49:00,mfh,41.19
2023-08-11T04:50:00,mfh,41.43
2023-08-11T04:51:00,mfh,42.13
2023-08-11T04:52:00,mfh,41.79
2023-08-11T04:53:00,mfh,41.99
2023-08-11T04:54:00,mfh,42.00
2023-08-11T04:55:00,mfh,42.17
2023-08-11T04:56:00,mfh,41.84
2023-08-11T04:57:00,mfh,41.34
2023-08-11T04:58:00,mfh,40.76
2023-08-11T04:59:00,mfh,40.79
2023-08-11T05:00:00,mfh,40.75
2023-08-11T05:01:00,mfh,58.53
2023-08-11T05:02:00,mfh,61.81
2023-08-11T05:03:00,mfh,61.41
2023-08-11T05:04:00,mfh,61.46
2023-08-11T05:05:00,mfh,61.01
2023-08-11T05:06:00,mfh,60.77
2023-08-11T05:07:00,mfh,60.82
2023-08-11T05:08:00,mfh,60.93
2023-08-11T05:09:00,mfh,61.52
2023-08-11T05:10:00,mfh,60.80
2023-08-11T05:11:00,mfh,60.79
2023-08-11T05:12:00,mfh,60.77
2023-08-11T05:13:00,mfh,61.51
2023-08-11T05:14:00,mfh,61.05
2023-08-11T05:15:00,mfh,60.76
2023-08-11T05:16:00,mfh,60.81
2023-08-11T05:17:00,mfh,60.86
2023-08-11T05:18:00,mfh,60.74
2023-08-11T05:19:00,mfh,60.72
2023-08-11T05:20:00,mfh,60.84
2023-08-11T05:21:00,mfh,61.73
2023-08-11T05:22:00,mfh,61.71
2023-08-11T05:23:00,mfh,60.95
2023-08-11T05:24:00,mfh,61.02
2023-08-11T05:25:00,mfh,60.83
2023-08-11T05:26:00,mfh,60.83
2023-08-11T05:27:00,mfh,61.57
2023-08-11T05:28:00,mfh,61.52
2023-08-11T05:29:00,mfh,62.97
2023-08-11T05:30:00,mfh,63.06
2023-08-11T05:31:00,mfh,63.18
2023-08-11T05:32:00,mfh,62.38
2023-08-11T05:33:00,mfh,62.56
2023-08-11T05:34:00,mfh,61.82
2023-08-11T05:35:00,mfh,61.24
2023-08-11T05:36:00,mfh,61.30
2023-08-11T05:37:00,mfh,63.43
2023-08-11T05:38:00,mfh,63.41
2023-08-11T05:39:00,mfh,63.77
2023-08-11T05:40:00,mfh,62.99
2023-08-11T05:41:00,mfh,63.58
2023-08-11T05:42:00,mfh,61.93
2023-08-11T05:43:00,mfh,62.19
2023-08-11T05:44:00,mfh,62.53
2023-08-11T05:45:00,mfh,63.47
2023-08-11T05:46:00,mfh,63.71
2023-08-11T05:47:00,mfh,62.44
2023-08-11T05:48:00,mfh,63.64
2023-08-11T05:49:00,mfh,62.15
2023-08-11T05:50:00,mfh,62.16
2023-08-11T05:51:00,mfh,62.37
2023-08-11T05:52:00,mfh,60.98
2023-08-11T05:53:00,mfh,61.69
2023-08-11T05:54:00,mfh,61.83
2023-08-11T05:55:00,mfh,62.74
2023-08-11T05:56:00,mfh,62.89
2023-08-11T05:57:00,mfh,62.27
2023-08-11T05:58:00,mfh,63.06
2023-08-11T05:59:00,mfh,63.54
2023-08-11T06:00:00,mfh,63.39
2023-08-11T06:01:00,mfh,64.65
2023-08-11T06:02:00,mfh,63.20
2023-08-11T06:03:00,mfh,62.38
2023-08-11T06:04:00,mfh,62.56
2023-08-11T06:05:00,mfh,62.57
2023-08-11T06:06:00,mfh,63.41
2023-08-11T06:07:00,mfh,62.79
2023-08-11T06:08:00,mfh,62.77
2023-08-11T06:09:00,mfh,62.76
2023-08-11T06:10:00,mfh,63.50
2023-08-11T06:11:00,mfh,63.64
2023-08-11T06:12:00,mfh,63.07
2023-08-11T06:13:00,mfh,63.76
2023-08-11T06:14:00,mfh,63.45
2023-08-11T06:15:00,mfh,62.47
2023-08-11T06:16:00,mfh,62.61
2023-08-11T06:17:00,mfh,62.43
2023-08-11T06:18:00,mfh,62.52
2023-08-11T06:19:00,mfh,62.31
2023-08-11T06:20:00,mfh,62.86
2023-08-11T06:21:00,mfh,62.16
2023-08-11T06:22:00,mfh,62.85
2023-08-11T06:23:00,mfh,62.73
2023-08-11T06:24:00,mfh,62.13
2023-08-11T06:25:00,mfh,62.02
2023-08-11T06:26:00,mfh,61.40
2023-08-11T06:27:00,mfh,61.68
2023-08-11T06:28:00,mfh,61.39
2023-08-11T06:29:00,mfh,61.42
2023-08-11T06:30:00,mfh,62.24
2023-08-11T06:31:00,mfh,63.07
2023-08-11T06:32:00,mfh,62.45
2023-08-11T06:33:00,mfh,62.60
2023-08-11T06:34:00,mfh,62.57
2023-08-11T06:35:00,mfh,61.32
2023-08-11T06:36:00,mfh,61.81
2023-08-11T06:37:00,mfh,62.03
2023-08-11T06:38:00,mfh,62.98
2023-08-11T06:39:00,mfh,63.19
2023-08-11T06:40:00,mfh,63.12
2023-08-11T06:41:00,mfh,62.54
2023-08-11T06:42:00,mfh,61.64
2023-08-11T06:43:00,mfh,60.99
2023-08-11T06:44:00,mfh,61.58
2023-08-11T06:45:00,mfh,61.61
2023-08-11T06:46:00,mfh,62.28
2023-08-11T06:47:00,mfh,62.17
2023-08-11T06:48:00,mfh,62.38
2023-08-11T06:49:00,mfh,62.11
2023-08-11T06:50:00,mfh,61.11
2023-08-11T06:51:00,mfh,61.37
2023-08-11T06:52:00,mfh,61.32
2023-08-11T06:53:00,mfh,61.77
2023-08-11T06:54:00,mfh,61.99
2023-08-11T06:55:00,mfh,62.19
2023-08-11T06:56:00,mfh,62.77
2023-08-11T06:57:00,mfh,62.45
2023-08-11T06:58:00,mfh,61.76
2023-08-11T06:59:00,mfh,61.75
2023-08-11T07:00:00,mfh,61.04
2023-08-11T07:01:00,mfh,61.06
2023-08-11T07:02:00,mfh,62.11
2023-08-11T07:03:00,mfh,61.56
2023-08-11T07:04:00,mfh,62.76
2023-08-11T07:05:00,mfh,62.14
2023-08-11T07:06:00,mfh,62.03
2023-08-11T07:07:00,mfh,61.33
2023-08-11T07:08:00,mfh,61.58
2023-08-11T07:09:00,mfh,62.20
2023-08-11T07:10:00,mfh,61.69
2023-08-11T07:11:00,mfh,61.74
2023-08-11T07:12:00,mfh,62.02
2023-08-11T07:13:00,mfh,62.69
2023-08-11T07:14:00,mfh,62.70
2023-08-11T07:15:00,mfh,63.19
2023-08-11T07:16:00,mfh,62.03
2023-08-11T07:17:00,mfh,61.99
2023-08-11T07:18:00,mfh,61.43
2023-08-11T07:19:00,mfh,62.00
2023-08-11T07:20:00,mfh,61.92
2023-08-11T07:21:00,mfh,62.45
2023-08-11T07:22:00,mfh,62.62
2023-08-11T07:23:00,mfh,62.48
2023-08-11T07:24:00,mfh,62.47
2023-08-11T07:25:00,mfh,62.06
2023-08-11T07:26:00,mfh,62.17
2023-08-11T07:27:00,mfh,61.59
2023-08-11T07:28:00,mfh,62.16
2023-08-11T07:29:00,mfh,62.26
2023-08-11T07:30:00,mfh,62.15
2023-08-11T07:31:00,mfh,62.95
2023-08-11T07:32:00,mfh,62.99
2023-08-11T07:33:00,mfh,62.42
2023-08-11T07:34:00,mfh,62.63
2023-08-11T07:35:00,mfh,62.75
2023-08-11T07:36:00,mfh,61.71
2023-08-11T07:37:00,mfh,62.37
2023-08-11T07:38:00,mfh,62.36
2023-08-11T07:39:00,mfh,62.66
2023-08-11T07:40:00,mfh,62.91
2023-08-11T07:41:00,mfh,62.94
2023-08-11T07:42:00,mfh,62.11
2023-08-11T07:43:00,mfh,62.10
2023-08-11T07:44:00,mfh,62.05
2023-08-11T07:45:00,mfh,61.96
2023-08-11T07:46:00,mfh,62.05
2023-08-11T07:47:00,mfh,62.07
2023-08-11T07:48:00,mfh,61.82
2023-08-11T07:49:00,mfh,62.64
2023-08-11T07:50:00,mfh,62.66
2023-08-11T07:51:00,mfh,61.71
2023-08-11T07:52:00,mfh,61.84
2023-08-11T07:53:00,mfh,61.69
2023-08-11T07:54:00,mfh,61.24
2023-08-11T07:55:00,mfh,61.97
2023-08-11T07:56:00,mfh,61.61
2023-08-11T07:57:00,mfh,61.76
2023-08-11T07:58:00,mfh,61.75
2023-08-11T07:59:00,mfh,62.13
2023-08-11T08:00:00,mfh,61.87
2023-08-11T08:01:00,mfh,61.95
2023-08-11T08:02:00,mfh,62.45
2023-08-11T08:03:00,mfh,61.39
2023-08-11T08:04:00,mfh,61.55
2023-08-11T08:05:00,mfh,61.24
2023-08-11T08:06:00,mfh,62.28
2023-08-11T08:07:00,mfh,62.34
2023-08-11T08:08:00,mfh,61.96
2023-08-11T08:09:00,mfh,61.47
2023-08-11T08:10:00,mfh,62.05
2023-08-11T08:11:00,mfh,61.01
2023-08-11T08:12:00,mfh,60.65
2023-08-11T08:13:00,mfh,61.27
2023-08-11T08:14:00,mfh,61.46
2023-08-11T08:15:00,mfh,62.09
2023-08-11T08:16:00,mfh,62.16
2023-08-11T08:17:00,mfh,63.30
2023-08-11T08:18:00,mfh,61.59
2023-08-11T08:19:00,mfh,61.45
2023-08-11T08:20:00,mfh,60.33
2023-08-11T08:21:00,mfh,60.77
2023-08-11T08:22:00,mfh,60.84
2023-08-11T08:23:00,mfh,61.42
2023-08-11T08:24:00,mfh,61.41
2023-08-11T08:25:00,mfh,61.60
2023-08-11T08:26:00,mfh,61.54
2023-08-11T08:27:00,mfh,61.22
2023-08-11T08:28:00,mfh,60.88
2023-08-11T08:29:00,mfh,60.71
2023-08-11T08:30:00,mfh,61.20
2023-08-11T08:31:00,mfh,61.84
2023-08-11T08:32:00,mfh,62.04
2023-08-11T08:33:00,mfh,62.31
2023-08-11T08:34:00,mfh,62.44
2023-08-11T08:35:00,mfh,61.84
2023-08-11T08:36:00,mfh,62.12
2023-08-11T08:37:00,mfh,62.01
2023-08-11T08:38:00,mfh,62.24
2023-08-11T08:39:00,mfh,62.05
2023-08-11T08:40:00,mfh,62.35
2023-08-11T08:41:00,mfh,63.13
2023-08-11T08:42:00,mfh,61.54
2023-08-11T08:43:00,mfh,61.49
2023-08-11T08:44:00,mfh,61.16
2023-08-11T08:45:00,mfh,61.63
2023-08-11T08:46:00,mfh,61.49
2023-08-11T08:47:00,mfh,62.07
2023-08-11T08:48:00,mfh,62.72
2023-08-11T08:49:00,mfh,62.67
2023-08-11T08:50:00,mfh,62.12
2023-08-11T08:51:00,mfh,63.29
2023-08-11T08:52:00,mfh,62.81
2023-08-11T08:53:00,mfh,62.02
2023-08-11T08:54:00,mfh,61.93
2023-08-11T08:55:00,mfh,62.09
2023-08-11T08:56:00,mfh,62.82
2023-08-11T08:57:00,mfh,62.60
2023-08-11T08:58:00,mfh,61.83
2023-08-11T08:59:00,mfh,61.68
2023-08-11T09:00:00,mfh,62.74
2023-08-11T09:01:00,mfh,63.73
2023-08-11T09:02:00,mfh,63.65
2023-08-11T09:03:00,mfh,63.89
2023-08-11T09:04:00,mfh,63.70
2023-08-11T09:05:00,mfh,65.51
2023-08-11T09:06:00,mfh,63.99
2023-08-11T09:07:00,mfh,65.80
2023-08-11T09:08:00,mfh,63.99
2023-08-11T09:09:00,mfh,65.03
2023-08-11T09:10:00,mfh,64.93
2023-08-11T09:11:00,mfh,63.35
2023-08-11T09:12:00,mfh,63.33
2023-08-11T09:13:00,mfh,64.56
2023-08-11T09:14:00,mfh,64.09
2023-08-11T09:15:00,mfh,63.49
2023-08-11T09:16:00,mfh,63.69
2023-08-11T09:17:00,mfh,64.20
2023-08-11T09:18:00,mfh,64.03
2023-08-11T09:19:00,mfh,64.44
2023-08-11T09:20:00,mfh,64.03
2023-08-11T09:21:00,mfh,64.18
2023-08-11T09:22:00,mfh,64.00
2023-08-11T09:23:00,mfh,63.51
2023-08-11T09:24:00,mfh,63.45
2023-08-11T09:25:00,mfh,63.58
2023-08-11T09:26:00,mfh,64.70
2023-08-11T09:27:00,mfh,64.53
2023-08-11T09:28:00,mfh,65.03
2023-08-11T09:29:00,mfh,64.31
2023-08-11T09:30:00,mfh,64.53
2023-08-11T09:31:00,mfh,63.93
2023-08-11T09:32:00,mfh,63.45
2023-08-11T09:33:00,mfh,63.44
2023-08-11T09:34:00,mfh,64.03
2023-08-11T09:35:00,mfh,64.67
2023-08-11T09:36:00,mfh,64.10
2023-08-11T09:37:00,mfh,64.81
2023-08-11T09:38:00,mfh,65.17
2023-08-11T09:39:00,mfh,65.60
2023-08-11T09:40:00,mfh,65.82
2023-08-11T09:41:00,mfh,65.68
2023-08-11T09:42:00,mfh,65.04
2023-08-11T09:43:00,mfh,65.63
2023-08-11T09:44:00,mfh,66.09
2023-08-11T09:45:00,mfh,65.93
2023-08-11T09:46:00,mfh,65.17
2023-08-11T09:47:00,mfh,65.38
2023-08-11T09:48:00,mfh,64.41
2023-08-11T09:49:00,mfh,65.12
2023-08-11T09:50:00,mfh,64.38
2023-08-11T09:51:00,mfh,65.22
2023-08-11T09:52:00,mfh,65.92
2023-08-11T09:53:00,mfh,65.21
2023-08-11T09:54:00,mfh,63.96
2023-08-11T09:55:00,mfh,63.55
2023-08-11T09:56:00,mfh,64.25
2023-08-11T09:57:00,mfh,64.45
2023-08-11T09:58:00,mfh,64.50
2023-08-11T09:59:00,mfh,65.19
2023-08-11T10:00:00,mfh,64.53
2023-08-11T10:01:00,mfh,64.71
2023-08-11T10:02:00,mfh,64.69
2023-08-11T10:03:00,mfh,64.16
2023-08-11T10:04:00,mfh,63.48
2023-08-11T10:05:00,mfh,63.39
2023-08-11T10:06:00,mfh,63.78
2023-08-11T10:07:00,mfh,64.42
2023-08-11T10:08:00,mfh,65.16
2023-08-11T10:09:00,mfh,65.14
2023-08-11T10:10:00,mfh,65.16
2023-08-11T10:11:00,mfh,64.70
2023-08-11T10:12:00,mfh,64.25
2023-08-11T10:13:00,mfh,64.26
2023-08-11T10:14:00,mfh,63.93
2023-08-11T10:15:00,mfh,64.56
2023-08-11T10:16:00,mfh,64.91
2023-08-11T10:17:00,mfh,65.23
2023-08-11T10:18:00,mfh,65.43
2023-08-11T10:19:00,mfh,65.12
2023-08-11T10:20:00,mfh,65.37
2023-08-11T10:21:00,mfh,65.82
2023-08-11T10:22:00,mfh,65.12
2023-08-11T10:23:00,mfh,65.58
2023-08-11T10:24:00,mfh,64.07
2023-08-11T10:25:00,mfh,65.29
2023-08-11T10:26:00,mfh,65.94
2023-08-11T10:27:00,mfh,65.97
2023-08-11T10:28:00,mfh,66.06
2023-08-11T10:29:00,mfh,66.64
2023-08-11T10:30:00,mfh,65.99
2023-08-11T10:31:00,mfh,65.87
2023-08-11T10:32:00,mfh,64.34
2023-08-11T10:33:00,mfh,64.25
2023-08-11T10:34:00,mfh,64.44
2023-08-11T10:35:00,mfh,65.25
2023-08-11T10:36:00,mfh,64.48
2023-08-11T10:37:00,mfh,64.50
2023-08-11T10:38:00,mfh,65.17
2023-08-11T10:39:00,mfh,65.16
2023-08-11T10:40:00,mfh,65.18
2023-08-11T10:41:00,mfh,65.57
2023-08-11T10:42:00,mfh,64.58
2023-08-11T10:43:00,mfh,64.51
2023-08-11T10:44:00,mfh,64.42
2023-08-11T10:45:00,mfh,64.26
2023-08-11T10:46:00,mfh,65.17
2023-08-11T10:47:00,mfh,64.89
2023-08-11T10:48:00,mfh,64.38
2023-08-11T10:49:00,mfh,64.47
2023-08-11T10:50:00,mfh,65.06
2023-08-11T10:51:00,mfh,65.00
2023-08-11T10:52:00,mfh,64.16
2023-08-11T10:53:00,mfh,64.10
2023-08-11T10:54:00,mfh,64.17
2023-08-11T10:55:00,mfh,65.10
2023-08-11T10:56:00,mfh,64.79
2023-08-11T10:57:00,mfh,64.44
2023-08-11T10:58:00,mfh,64.75
2023-08-11T10:59:00,mfh,64.84
2023-08-11T11:00:00,mfh,65.05
2023-08-11T11:01:00,mfh,65.51
2023-08-11T11:02:00,mfh,65.22
2023-08-11T11:03:00,mfh,64.93
2023-08-11T11:04:00,mfh,65.43
2023-08-11T11:05:00,mfh,65.27
2023-08-11T11:06:00,mfh,65.07
2023-08-11T11:07:00,mfh,64.88
2023-08-11T11:08:00,mfh,64.83
2023-08-11T11:09:00,mfh,63.48
2023-08-11T11:10:00,mfh,63.68
2023-08-11T11:11:00,mfh,63.43
2023-08-11T11:12:00,mfh,64.72
2023-08-11T11:13:00,mfh,64.13
2023-08-11T11:14:00,mfh,63.95
2023-08-11T11:15:00,mfh,64.17
2023-08-11T11:16:00,mfh,64.89
2023-08-11T11:17:00,mfh,64.81
2023-08-11T11:18:00,mfh,64.93
2023-08-11T11:19:00,mfh,64.23
2023-08-11T11:20:00,mfh,64.22
2023-08-11T11:21:00,mfh,64.17
2023-08-11T11:22:00,mfh,63.91
2023-08-11T11:23:00,mfh,64.61
2023-08-11T11:24:00,mfh,64.08
2023-08-11T11:25:00,mfh,64.71
2023-08-11T11:26:00,mfh,64.72
2023-08-11T11:27:00,mfh,64.76
2023-08-11T11:28:00,mfh,64.68
2023-08-11T11:29:00,mfh,65.01
2023-08-11T11:30:00,mfh,64.53
2023-08-11T11:31:00,mfh,64.65
2023-08-11T11:32:00,mfh,64.58
2023-08-11T11:33:00,mfh,64.89
2023-08-11T11:34:00,mfh,64.47
2023-08-11T11:35:00,mfh,64.22
2023-08-11T11:36:00,mfh,64.99
2023-08-11T11:37:00,mfh,64.96
2023-08-11T11:38:00,mfh,64.92
2023-08-11T11:39:00,mfh,65.07
2023-08-11T11:40:00,mfh,64.22
2023-08-11T11:41:00,mfh,64.06
2023-08-11T11:42:00,mfh,64.09
2023-08-11T11:43:00,mfh,64.28
2023-08-11T11:44:00,mfh,63.54
2023-08-11T11:45:00,mfh,64.12
2023-08-11T11:46:00,mfh,64.84
2023-08-11T11:47:00,mfh,64.76
2023-08-11T11:48:00,mfh,64.39
2023-08-11T11:49:00,mfh,64.40
2023-08-11T11:50:00,mfh,64.47
2023-08-11T11:51:00,mfh,63.75
2023-08-11T11:52:00,mfh,63.84
2023-08-11T11:53:00,mfh,63.91
2023-08-11T11:54:00,mfh,64.12
2023-08-11T11:55:00,mfh,63.70
2023-08-11T11:56:00,mfh,63.70
2023-08-11T11:57:00,mfh,64.60
2023-08-11T11:58:00,mfh,65.57
2023-08-11T11:59:00,mfh,66.09
2023-08-11T12:00:00,mfh,64.44
2023-08-11T12:01:00,mfh,64.80
2023-08-11T12:02:00,mfh,63.31
2023-08-11T12:03:00,mfh,63.21
2023-08-11T12:04:00,mfh,63.75
2023-08-11T12:05:00,mfh,64.90
2023-08-11T12:06:00,mfh,65.19
2023-08-11T12:07:00,mfh,65.32
2023-08-11T12:08:00,mfh,65.19
2023-08-11T12:09:00,mfh,65.90
2023-08-11T12:10:00,mfh,65.36
2023-08-11T12:11:00,mfh,65.50
2023-08-11T12:12:00,mfh,65.44
2023-08-11T12:13:00,mfh,64.81
2023-08-11T12:14:00,mfh,64.72
2023-08-11T12:15:00,mfh,63.36
2023-08-11T12:16:00,mfh,63.65
2023-08-11T12:17:00,mfh,63.86
2023-08-11T12:18:00,mfh,63.93
2023-08-11T12:19:00,mfh,63.77
2023-08-11T12:20:00,mfh,64.11
2023-08-11T12:21:00,mfh,64.61
2023-08-11T12:22:00,mfh,64.43
2023-08-11T12:23:00,mfh,63.56
2023-08-11T12:24:00,mfh,63.98
2023-08-11T12:25:00,mfh,63.97
2023-08-11T12:26:00,mfh,65.44
2023-08-11T12:27:00,mfh,65.55
2023-08-11T12:28:00,mfh,65.82
2023-08-11T12:29:00,mfh,65.48
2023-08-11T12:30:00,mfh,64.72
2023-08-11T12:31:00,mfh,65.53
2023-08-11T12:32:00,mfh,65.59
2023-08-11T12:33:00,mfh,70.72
2023-08-11T12:34:00,mfh,74.43
2023-08-11T12:35:00,mfh,73.87
2023-08-11T12:36:00,mfh,73.56
2023-08-11T12:37:00,mfh,73.50
2023-08-11T12:38:00,mfh,74.56
2023-08-11T12:39:00,mfh,74.75
2023-08-11T12:40:00,mfh,74.76
2023-08-11T12:41:00,mfh,74.72
2023-08-11T12:42:00,mfh,74.53
2023-08-11T12:43:00,mfh,74.95
2023-08-11T12:44:00,mfh,74.84
2023-08-11T12:45:00,mfh,74.48
2023-08-11T12:46:00,mfh,78.96
2023-08-11T12:47:00,mfh,79.24
2023-08-11T12:48:00,mfh,79.76
2023-08-11T12:49:00,mfh,80.33
2023-08-11T12:50:00,mfh,80.20
2023-08-11T12:51:00,mfh,79.98
2023-08-11T12:52:00,mfh,79.98
2023-08-11T12:53:00,mfh,79.92
2023-08-11T12:54:00,mfh,79.90
2023-08-11T12:55:00,mfh,79.88
2023-08-11T12:56:00,mfh,79.50
2023-08-11T12:57:00,mfh,78.96
2023-08-11T12:58:00,mfh,78.94
2023-08-11T12:59:00,mfh,79.36
2023-08-11T13:00:00,mfh,79.82
2023-08-11T13:01:00,mfh,79.97
2023-08-11T13:02:00,mfh,79.99
2023-08-11T13:03:00,mfh,79.93
2023-08-11T13:04:00,mfh,79.85
2023-08-11T13:05:00,mfh,79.76
2023-08-11T13:06:00,mfh,79.25
2023-08-11T13:07:00,mfh,78.54
2023-08-11T13:08:00,mfh,78.68
2023-08-11T13:09:00,mfh,69.23
2023-08-11T13:10:00,mfh,70.12
2023-08-11T13:11:00,mfh,65.30
2023-08-11T13:12:00,mfh,58.43
2023-08-11T13:13:00,mfh,58.28
2023-08-11T13:14:00,mfh,58.26
2023-08-11T13:15:00,mfh,58.32
2023-08-11T13:16:00,mfh,58.81
2023-08-11T13:17:00,mfh,57.05
2023-08-11T13:18:00,mfh,57.05